CAPE
0 0 0 0 0 0 0 0 0 0 0 0 0 0 0 0 0 0 0 0 0 0 0 0 0 0 0 0 0 71 188 2074 3165 3134 3144 3029 2750 2647 2476 2361 2203 1950 1555 1677
0 0 0 0 0 0 0 0 0 0 0 0 0 0 0 0 0 0 0 0 0 0 0 0 0 0 0 0 0 0 284 709 2422 2797 2887 2630 2456 2480 2724 2685 2671 2383 2158 2078
0 0 0 0 0 0 0 0 0 0 0 0 0 0 0 0 0 0 0 0 0 0 0 0 0 0 0 0 0 0 113 575 972 2424 2332 2811 2822 3138 3103 3148 3041 2902 2617 2453
0 0 0 0 0 0 0 0 0 0 0 0 0 0 0 0 0 0 0 0 0 0 0 0 0 0 0 0 0 0 2 236 591 1306 2277 3746 3071 2613 2687 3296 3221 3241 2800 2581
0 0 0 0 0 0 0 0 0 0 0 0 0 0 0 0 0 0 0 0 0 0 0 0 0 0 0 0 0 0 0 96 487 783 1993 2330 3191 2103 2276 2546 3829 4245 4056 2998
0 0 0 0 0 0 0 0 0 0 0 0 0 0 0 0 0 0 0 0 0 0 0 0 0 0 0 0 0 0 0 37 159 539 1018 2387 3284 3342 2323 2666 3001 3395 3907 3990
0 0 0 0 0 0 0 0 1 2 14 1 6 5 3 1 0 0 0 0 0 0 0 0 0 0 0 0 0 0 0 94 182 232 373 770 2111 3636 4423 4221 3157 3813 3498 3390
0 0 0 0 0 0 7 19 21 19 26 36 17 20 15 0 0 0 0 0 0 0 0 0 0 0 0 0 0 0 0 50 150 199 285 399 562 1233 2370 3420 2971 3065 2975 3101
2 1 0 0 0 0 0 12 1 19 29 28 13 11 11 3 5 0 0 0 0 0 0 0 0 0 0 0 0 0 0 37 168 265 401 464 594 958 1851 3367 3434 3272 3502 2610
1 10 0 1 1 0 0 1 19 25 40 30 16 12 32 8 3 24 0 0 0 0 0 0 0 0 0 0 0 0 0 2 59 123 197 459 803 1231 2057 2691 2799 2565 2262 1958
5 14 4 6 4 1 3 23 32 42 75 63 53 32 0 6 14 2 0 0 0 0 0 0 3 1 0 0 0 0 0 0 0 22 165 229 529 735 1238 1662 1891 1334 1050 759
6 26 32 13 16 16 22 28 22 69 63 92 116 39 12 40 15 6 19 3 0 0 0 0 0 16 18 10 0 0 0 0 0 19 77 247 331 322 349 471 636 847 1047 888
28 48 43 20 9 12 18 27 37 43 10 38 122 41 0 0 12 21 7 0 0 4 3 0 3 14 37 37 21 3 0 0 0 2 16 143 319 640 709 748 871 696 879 1116
14 46 65 44 30 9 37 28 42 61 69 36 75 61 66 17 7 6 11 6 6 13 10 8 6 2 13 1 0 0 0 0 0 0 0 23 84 162 630 930 895 983 811 736
58 46 39 26 20 15 21 35 39 47 65 92 46 38 39 4 7 24 10 6 15 15 13 13 6 1 1 0 0 0 0 0 0 0 0 0 0 19 21 279 704 728 547 545
47 58 30 26 12 12 16 13 14 6 1 24 26 8 8 36 13 37 57 32 10 5 5 5 2 0 0 0 0 0 0 0 0 0 0 0 0 0 8 120 445 615 381 522
64 40 50 28 10 21 4 8 25 22 10 1 11 38 63 90 67 66 24 9 10 15 10 5 5 4 8 8 10 8 5 6 2 0 0 0 0 0 0 0 129 361 602 780
61 42 42 38 26 11 25 15 1 9 8 17 38 83 70 34 34 17 12 12 23 22 17 14 19 20 19 23 24 27 31 27 16 7 1 0 0 0 0 0 0 108 391 651
17 37 86 52 24 8 3 8 57 54 56 56 78 70 31 26 17 2 6 11 23 30 32 33 33 30 31 37 31 34 36 25 24 19 19 7 0 0 0 0 0 0 43 307
16 17 66 70 30 31 66 24 3 7 32 22 4 14 14 19 15 1 16 18 19 24 22 17 21 26 24 35 48 53 54 37 27 18 10 9 9 6 3 0 0 0 0 0
25 53 53 37 61 56 28 15 2 42 76 23 16 18 23 22 23 31 20 14 16 26 18 37 35 34 28 34 34 36 26 27 29 35 20 17 23 21 18 19 16 11 4 1
31 45 48 49 78 27 29 35 43 104 28 13 13 22 11 11 9 15 21 37 28 27 30 47 40 34 29 32 27 33 21 20 23 31 23 23 24 30 22 36 28 28 28 21
54 42 138 131 85 84 78 51 44 33 17 27 18 14 11 16 20 31 33 44 31 27 59 38 26 23 37 23 30 35 16 21 35 34 26 28 18 17 31 42 42 34 41 24
33 35 61 66 56 56 43 32 29 11 29 19 14 13 8 16 25 36 39 34 51 44 24 20 27 32 29 20 20 22 20 19 19 24 18 23 22 23 26 22 30 34 31 35
11 21 18 38 46 30 21 18 31 25 25 12 9 18 21 19 22 28 28 44 45 33 22 14 13 25 22 22 19 13 19 12 12 21 20 17 17 19 21 21 21 22 28 30
56 53 101 59 15 27 23 27 23 25 8 10 17 8 6 26 20 15 31 34 35 35 17 21 27 23 18 18 18 22 22 20 19 16 17 20 25 25 23 24 23 1 1 0
CIN
0 0 0 0 0 0 0 0 0 0 0 0 0 0 0 0 0 0 0 0 0 0 0 0 0 0 0 0 0 -224 -204 -78 -34 -25 -23 -23 -30 -33 -45 -74 -103 -101 -126 -83
0 0 0 0 0 0 0 0 0 0 0 0 0 0 0 0 0 0 0 0 0 0 0 0 0 0 0 0 0 0 -152 -167 -66 -33 -34 -26 -23 -22 -22 -30 -50 -89 -98 -85
0 0 0 0 0 0 0 0 0 0 0 0 0 0 0 0 0 0 0 0 0 0 0 0 0 0 0 0 0 0 -121 -125 -146 -60 -37 -14 -12 -3 -1 -12 -43 -79 -96 -92
0 0 0 0 0 0 0 0 0 0 0 0 0 0 0 0 0 0 0 0 0 0 0 0 0 0 0 0 0 0 -9 -140 -121 -112 -51 0 -1 -8 -3 -1 -10 -34 -84 -72
0 0 0 0 0 0 0 0 0 0 0 0 0 0 0 0 0 0 0 0 0 0 0 0 0 0 0 0 0 0 0 -153 -147 -113 -76 -25 0 -21 -12 0 0 0 0 -53
0 0 0 0 0 0 0 0 0 0 0 0 0 0 0 0 0 0 0 0 0 0 0 0 0 0 0 0 0 0 0 -102 -155 -136 -97 -28 -8 0 -11 0 0 0 0 -3
0 0 0 0 0 0 0 0 0 0 0 0 0 0 0 -1 0 0 0 0 0 0 0 0 0 0 0 0 0 0 0 -110 -124 -137 -130 -102 -20 0 0 0 0 -1 0 0
0 0 0 0 0 0 0 0 0 0 0 0 -1 0 0 0 0 0 0 0 0 0 0 0 0 0 0 0 0 0 0 -96 -106 -122 -134 -142 -153 -66 -10 0 0 0 0 0
0 0 0 0 0 0 0 0 0 0 0 0 0 0 0 0 -2 0 0 0 0 0 0 0 0 0 0 0 0 0 0 -89 -76 -90 -108 -137 -131 -101 -32 0 0 0 0 -1
0 0 0 0 -1 0 0 0 0 0 0 0 0 -1 0 -1 -1 -1 0 0 0 0 0 0 0 0 0 0 0 0 0 -25 -60 -69 -92 -63 -59 -43 -4 -1 0 0 -34 -27
0 0 0 0 0 0 -1 0 0 0 0 0 0 0 -9 -2 -2 0 0 0 -12 0 0 0 -35 -42 0 0 0 0 0 0 0 -92 -53 -85 -58 -33 -1 0 0 -29 -63 -77
0 0 0 0 0 -1 0 0 -1 0 0 0 0 0 0 0 0 0 0 -3 0 0 0 0 0 0 0 0 0 0 0 0 0 -93 -90 -28 -26 -51 -70 -35 -45 -60 -52 -46
0 0 0 0 0 0 0 0 0 0 -5 0 0 0 -2 0 0 0 0 0 0 0 0 0 0 0 0 0 0 0 0 0 0 -138 -138 -126 -50 -2 -6 -13 -29 -60 -67 -33
-9 0 0 0 0 -1 0 0 0 0 0 0 0 0 0 -3 0 0 0 0 0 -2 0 0 0 0 0 0 0 0 0 0 0 0 0 -153 -153 -127 -22 -14 -20 -30 -29 -22
0 0 0 0 0 0 0 0 0 0 0 0 0 0 0 0 0 0 0 0 0 0 0 0 0 0 0 0 0 0 0 0 0 0 0 0 -6 -104 -162 -49 -23 -43 -69 -43
0 0 0 0 0 0 0 0 0 0 0 0 0 0 0 0 -3 -1 0 0 0 0 0 0 0 0 0 0 0 0 0 0 0 0 0 0 0 0 -79 -28 -65 -89 -106 -106
0 0 0 0 0 0 0 0 0 0 0 0 0 0 0 0 0 0 0 0 0 0 0 0 0 0 0 0 0 0 0 0 0 0 0 0 0 0 0 0 -94 -69 -55 -92
0 0 0 0 0 0 -1 -11 0 0 0 0 0 0 0 0 0 0 0 0 0 0 0 0 0 0 0 0 0 0 0 0 0 0 0 0 0 0 0 0 0 -88 -30 -26
0 0 0 0 0 -1 0 0 0 0 0 0 0 0 0 0 0 0 0 0 0 0 0 0 0 0 0 0 0 0 0 0 0 0 0 0 0 0 0 0 0 -6 -82 -30
0 0 0 0 0 0 0 -8 0 0 0 -1 0 0 0 0 0 0 0 0 0 0 0 0 0 0 0 0 0 0 0 0 0 0 0 0 0 0 0 0 0 0 0 -92
0 0 0 0 0 0 -1 -4 0 0 0 0 0 0 0 0 0 0 0 0 0 0 0 0 0 0 0 0 0 0 0 0 0 0 0 0 0 0 0 0 0 0 0 0
0 0 -1 0 0 0 0 0 0 0 -1 0 0 0 0 0 0 0 0 0 0 0 0 0 0 0 0 0 0 0 0 0 0 0 0 0 0 0 0 0 0 0 0 0
0 0 0 0 0 0 0 0 0 0 0 0 0 0 0 0 0 0 0 0 0 0 0 0 0 0 0 0 0 0 0 0 0 0 0 0 0 0 0 0 0 0 0 0
0 0 0 0 0 0 0 0 0 0 0 0 0 0 0 0 0 0 0 0 0 0 0 0 0 0 0 0 0 0 0 0 0 0 0 0 0 0 0 0 0 0 0 0
0 0 0 0 0 0 -1 0 0 0 0 0 0 0 0 0 0 0 0 0 0 0 0 0 0 0 0 0 0 0 0 0 0 0 0 0 0 0 0 0 0 0 0 0
0 0 0 0 0 0 0 0 0 0 0 0 0 0 0 0 0 0 0 0 0 0 0 0 0 0 0 0 0 0 0 0 0 0 0 0 0 0 0 0 0 -2 -1 -1
Wind_Speed
13 12 14 14 11 12 8 11 13 11 8 10 15 15 13 13 13 14 13 13 12 12 11 9 8 6 7 9 7 7 12 13 11 10 11 12 12 12 12 13 17 17 16 17
9 16 14 8 8 10 12 14 15 12 11 9 15 17 15 13 17 16 16 15 15 14 13 12 12 11 8 10 11 10 11 13 13 11 11 11 11 11 11 12 13 16 17 16
17 2 4 8 12 14 15 16 14 13 13 13 17 20 20 18 18 14 16 18 16 16 13 12 10 9 10 10 11 12 11 9 12 14 11 10 11 9 12 13 12 15 18 17
12 16 16 15 13 13 16 12 12 15 15 14 10 15 17 17 16 14 18 17 14 12 10 9 11 12 12 11 10 10 11 11 10 12 12 15 13 14 13 13 13 13 19 18
6 7 7 14 16 13 14 9 10 12 15 17 18 15 14 18 11 14 13 13 8 7 4 7 10 12 13 12 11 10 9 10 11 12 14 13 16 14 14 14 15 14 14 17
17 6 8 11 0 8 8 11 16 17 14 17 19 20 14 13 13 13 10 7 3 4 6 7 9 10 11 12 11 9 9 10 11 11 14 16 17 16 15 15 13 13 13 12
17 18 18 11 13 14 13 13 13 16 15 16 17 14 11 13 15 13 11 6 2 4 6 8 9 10 10 10 11 10 10 11 9 10 13 16 17 18 18 17 14 13 14 12
12 12 9 3 14 17 16 11 13 21 17 19 21 21 11 3 3 5 3 6 5 6 8 8 10 11 12 11 11 12 11 12 11 11 12 13 16 14 15 16 14 14 13 12
8 12 4 3 6 7 11 15 13 19 21 22 19 24 17 14 13 8 6 4 6 9 11 11 11 9 11 11 12 11 11 11 10 10 10 12 13 16 15 15 13 13 11 10
7 10 17 21 13 16 15 13 10 9 9 17 11 11 8 4 4 4 5 4 7 10 13 15 15 14 12 11 11 11 11 9 11 9 7 8 8 10 9 9 14 14 12 10
9 12 15 15 14 15 11 13 14 13 15 11 18 11 6 5 2 3 4 6 10 14 14 14 14 13 14 13 12 10 12 12 9 11 9 6 6 7 7 11 13 10 9 10
7 7 12 18 17 14 15 17 17 8 11 11 13 12 14 5 5 3 9 13 15 13 14 14 13 11 11 10 12 11 9 10 11 9 10 11 8 8 8 8 6 7 8 9
4 5 7 7 10 8 10 10 11 15 1 13 16 11 9 3 9 13 15 14 12 11 12 12 12 12 11 11 11 12 10 10 10 13 9 7 12 9 10 9 7 8 6 7
3 8 14 13 15 11 12 15 11 9 4 13 17 21 15 14 16 15 13 11 11 11 12 13 12 14 12 13 13 13 13 12 12 11 11 8 6 10 14 10 8 8 8 8
7 5 13 16 16 17 18 18 22 22 15 15 16 22 21 19 17 12 11 11 12 15 15 14 14 14 15 16 15 14 15 14 13 13 13 11 7 9 7 11 14 10 8 8
9 6 8 13 15 13 18 21 21 22 23 23 23 23 18 7 10 11 12 14 14 17 19 18 16 16 17 18 17 17 16 15 15 14 15 14 13 13 12 12 10 7 6 9
4 6 5 12 9 11 16 12 11 12 14 15 16 14 14 14 12 14 16 17 19 20 17 19 17 19 19 18 18 18 17 16 18 17 17 16 15 15 15 13 12 10 12 10
6 11 6 9 6 11 4 3 4 8 8 7 11 14 12 13 15 17 18 21 21 19 21 20 19 20 20 19 20 20 20 19 19 20 19 18 17 17 16 15 14 14 13 13
19 13 5 5 7 14 16 3 5 7 11 10 11 10 13 18 22 23 20 19 21 24 23 21 21 21 20 21 21 19 18 21 23 23 20 19 19 18 17 18 17 15 15 16
14 12 7 6 5 5 5 5 3 7 9 8 8 15 18 19 17 17 20 24 26 26 23 20 21 23 20 20 19 21 20 16 20 22 24 24 23 20 20 19 18 16 16 17
3 3 10 10 6 7 4 2 3 6 4 11 14 18 20 20 18 26 25 22 23 24 24 25 21 18 18 23 20 21 18 20 21 19 19 20 21 21 20 19 18 17 18 17
5 4 5 7 6 8 4 3 5 13 14 14 19 20 20 21 22 23 26 24 21 26 24 26 20 16 19 23 18 18 21 23 19 16 16 17 17 14 15 19 18 19 17 17
4 3 2 6 2 3 4 7 10 9 13 19 20 20 19 23 24 26 25 23 26 25 23 19 20 19 21 22 17 17 20 19 17 16 16 16 17 16 16 16 15 13 14 16
3 5 7 8 2 3 7 9 6 10 17 19 20 20 20 23 24 25 23 21 23 21 19 20 15 20 21 19 20 20 20 17 16 17 18 16 16 16 16 13 12 13 13 14
10 11 9 12 9 11 5 8 15 17 18 20 20 21 22 23 23 25 22 25 21 20 17 16 19 18 20 21 21 19 16 15 16 17 16 16 14 16 15 16 14 14 15 14
6 6 5 3 8 7 13 16 19 18 21 20 20 22 21 23 25 25 21 20 19 19 19 19 20 20 19 18 19 19 17 16 16 16 14 13 12 12 13 13 13 22 22 18
Wind_Direction
204 228 225 233 227 281 272 265 262 262 263 262 264 265 265 272 264 255 251 257 267 269 267 267 253 253 262 280 267 253 240 238 221 216 218 218 220 219 224 223 221 212 214 213
193 230 248 253 243 240 241 252 256 270 268 271 271 270 269 260 264 260 263 260 261 265 262 256 265 265 260 278 272 256 233 232 223 220 226 233 224 226 228 230 226 222 217 218
241 142 41 226 231 237 239 254 265 267 285 268 264 264 255 248 239 256 260 258 261 267 274 270 288 286 297 285 277 276 271 254 238 237 226 226 238 241 223 222 220 220 217 211
257 259 249 243 249 234 253 233 258 265 273 273 292 287 281 275 266 243 254 257 258 257 276 307 300 296 292 281 287 276 264 261 241 237 236 232 229 231 224 226 224 222 212 209
221 212 216 233 243 225 262 293 259 272 273 280 267 261 266 258 254 250 247 251 274 4 312 302 315 313 302 297 288 280 275 269 265 258 236 235 232 243 237 232 230 211 201 209
270 272 269 270 248 225 265 265 257 264 266 260 268 266 269 265 271 280 258 251 78 330 311 329 324 323 315 302 295 292 278 274 272 257 252 242 247 239 248 233 232 214 212 198
237 240 237 233 265 247 231 261 268 258 243 255 255 264 293 312 296 277 275 329 34 320 327 335 338 338 336 339 326 313 306 297 290 275 266 260 253 251 245 242 222 233 209 202
276 265 221 209 245 264 272 253 270 282 288 292 295 275 256 110 320 6 348 321 313 337 346 336 336 334 327 334 337 330 319 313 307 295 280 269 263 254 246 238 239 228 221 203
288 256 137 262 290 271 269 255 276 288 272 271 272 267 252 240 224 211 229 259 323 326 326 327 330 326 326 324 324 326 324 316 315 308 295 279 269 256 256 249 222 227 211 180
317 289 270 268 255 251 258 283 269 248 278 272 262 273 274 199 285 197 225 305 319 324 328 329 325 334 335 335 322 333 320 318 309 300 291 288 287 264 245 238 217 208 189 185
273 253 265 274 236 260 256 242 261 286 270 268 278 271 40 325 145 176 279 311 318 326 327 327 327 334 333 333 336 353 338 325 340 327 305 273 263 247 249 233 219 214 187 180
268 286 270 267 281 277 265 273 274 248 252 254 282 273 302 175 180 240 305 319 321 320 326 332 325 311 312 324 329 332 341 346 346 348 333 310 243 229 209 222 206 180 170 181
337 235 273 245 217 228 251 276 273 264 246 248 265 257 113 278 276 312 308 315 317 319 314 317 306 307 311 314 316 318 325 330 331 333 344 355 320 280 246 204 192 190 184 205
22 265 258 274 296 303 274 279 253 254 243 272 255 272 274 274 307 303 306 298 299 302 301 302 308 308 311 314 310 311 309 310 322 320 318 315 343 337 302 280 224 186 205 215
191 248 255 273 277 275 275 258 253 250 233 259 287 288 290 295 302 318 298 290 291 296 299 305 306 307 303 304 303 299 301 305 304 305 306 311 314 282 258 286 261 205 217 225
194 253 285 270 267 257 258 258 260 261 261 254 258 270 277 324 297 284 289 303 304 300 303 301 299 301 301 298 296 299 296 294 298 294 290 287 286 281 273 256 266 293 283 263
270 252 269 270 279 290 279 264 261 270 260 255 262 288 329 302 300 302 313 302 301 296 301 298 303 303 300 298 294 287 286 296 293 283 282 281 281 276 275 271 267 251 244 253
229 250 254 277 304 264 56 33 329 302 302 276 261 279 306 322 319 310 306 294 294 311 308 299 297 297 297 302 304 302 294 287 288 281 272 274 273 268 267 266 257 254 244 233
223 240 241 255 229 280 278 175 299 331 306 305 312 317 324 326 315 293 293 313 312 308 301 299 300 303 305 298 298 294 280 278 278 279 268 266 265 264 262 258 252 243 240 238
208 213 222 202 248 273 65 121 1 317 276 56 349 326 317 311 295 294 315 317 308 306 302 302 297 290 294 286 278 282 274 269 266 266 266 265 263 259 257 257 254 251 245 241
143 167 221 227 248 270 68 95 303 261 16 328 331 312 307 304 296 307 311 300 288 289 290 295 291 286 275 282 284 276 273 266 265 266 271 276 265 254 251 252 248 246 245 246
202 223 199 219 231 254 101 236 268 348 325 330 309 311 314 303 298 298 295 299 302 300 299 296 290 284 283 293 285 272 270 272 272 268 259 261 262 261 254 246 244 240 239 242
260 246 305 235 251 245 301 309 320 322 312 308 315 311 313 305 303 300 302 300 298 302 300 300 288 281 291 295 275 274 272 273 274 265 261 258 256 252 251 245 246 244 240 238
269 239 254 278 119 300 302 312 293 318 313 314 310 314 310 301 299 306 303 300 301 299 298 293 288 287 291 287 279 272 276 275 272 269 263 258 253 249 244 243 240 231 228 226
284 293 280 280 312 330 293 319 326 321 317 313 312 313 310 312 300 300 316 308 306 306 298 305 293 287 285 286 288 286 274 262 260 264 258 253 249 245 242 238 237 235 235 234
254 276 267 286 347 329 305 316 320 316 320 318 322 315 306 302 305 311 308 304 303 298 309 297 293 287 287 285 282 282 277 273 265 260 259 256 250 244 240 240 239 232 236 223